Simultaneous Nadir Overpasses (SNOs) Predictions

Prediction of SNOs between GOES-16 and METOP-C Satellite Orbit:

Table of predicted SNOs for the next 14.0 days since TLE Epoch: 11/12/2022
Index Date Time (GOES-16) GOES-16 Lat,Lon METOP-C Lat,Lon Distance(km) Time Diff (sec)
1 11/12/2022 02:46:44 0.06, -75.18 0.00, -78.78 400.34 80
2 11/13/2022 02:23:13 0.05, -75.19 0.38, -73.63 177.49 80
3 11/14/2022 14:42:06 -0.05, -75.22 0.61, -78.19 339.00 80
4 11/15/2022 14:21:27 -0.05, -75.22 -0.48, -73.19 230.97 80
5 11/17/2022 02:43:07 0.04, -75.21 -0.52, -77.79 293.14 80
6 11/18/2022 02:19:47 0.04, -75.23 0.58, -72.79 277.22 80
7 11/19/2022 14:41:21 -0.04, -75.27 0.42, -77.36 238.16 80
8 11/20/2022 14:18:01 -0.04, -75.28 -0.68, -72.36 332.56 80
9 11/22/2022 02:39:41 0.03, -75.28 -0.36, -76.95 190.45 80
10 11/23/2022 02:16:22 0.03, -75.29 0.81, -71.96 380.35 80
11 11/24/2022 14:35:14 -0.03, -75.34 0.25, -76.52 134.79 80
12 11/25/2022 14:17:15 -0.02, -75.35 -0.85, -71.52 436.11 80
